Date String (YYYY-MM-DD hh:mm:ss) UTC,Instrument flags,Ambient pressure (hPa),Sample flow (lpm),Bypass flow (lpm),Sample temperature (°C),Ambient temperature (°C),ASC tube jacket temperature (°C),LED temperature (°C),Box temperature (°C),Sample RH (%),Span deviation,Mass concentration (μg/m³),Mass concentration (μg/m³),Mass concentration (μg/m³)
DateTimeUTC,F1_M11,P_M11,Q1_M11,Q2_M11,T1_M11,T2_M11,T3_M11,T4_M11,T5_M11,U1_M11,ZSPAN_M11,X0_M11,X2_M11,X1_M11
2021-08-26 14:00:00,,0830.6,4.99,0.00,30.3,26.6,00.0,39.5,31.4,34.0,0000.8,0020.64,0010.84,0009.21
2021-08-26 14:01:00,,0830.6,5.00,0.00,30.2,27.0,00.0,39.4,31.4,34.6,0000.9,0020.27,0010.84,0009.21
2021-08-26 14:02:00,,0830.6,5.00,0.00,30.1,27.4,00.0,39.3,31.4,35.1,0000.7,0021.75,0010.84,0009.22
2021-08-26 14:03:00,,0830.6,4.99,0.00,30.3,27.8,00.0,39.3,31.6,34.9,0001.0,0022.06,0010.83,0009.20
2021-08-26 14:04:00,,0830.6,5.00,0.00,30.4,28.1,00.0,39.3,31.7,34.3,0001.0,0022.31,0010.84,0009.18
2021-08-26 14:05:00,,0830.6,5.00,0.00,30.5,28.3,00.0,39.3,31.8,34.2,0001.2,0022.08,0010.78,0009.16
2021-08-26 14:06:00,,0830.6,4.99,0.00,30.5,28.5,00.0,39.3,31.8,34.7,0001.5,0022.68,0010.83,0009.14
2021-08-26 14:07:00,,0830.6,5.00,0.00,30.6,28.7,00.0,39.3,31.8,34.8,0001.5,0023.78,0010.87,0009.12
2021-08-26 14:08:00,,0830.6,5.01,0.00,30.6,28.8,00.0,39.3,31.8,34.4,0001.3,0023.67,0010.88,0009.08
2021-08-26 14:09:00,,0830.6,4.99,0.00,30.6,28.9,00.0,39.4,31.9,34.2,0001.6,0023.88,0010.89,0009.08
2021-08-26 14:10:00,,0830.6,5.02,0.00,30.6,29.0,00.0,39.4,31.9,33.9,0001.8,0024.13,0010.87,0009.05
2021-08-26 14:11:00,,0830.6,4.98,0.00,30.6,29.1,00.0,39.4,31.9,33.6,0001.5,0023.83,0010.83,0009.02
2021-08-26 14:12:00,,0830.6,5.00,0.00,30.6,29.1,00.0,39.5,32.0,33.9,0001.1,0023.64,0010.77,0008.99
2021-08-26 14:13:00,,0830.6,5.01,0.00,30.6,29.2,00.0,39.5,32.0,33.9,0001.3,0022.13,0010.70,0008.95
2021-08-26 14:14:00,,0830.6,4.99,0.00,30.6,29.3,00.0,39.5,32.0,33.9,0001.2,0021.97,0010.72,0008.93
2021-08-26 14:15:00,,0830.6,5.00,0.00,30.6,29.3,00.0,39.5,32.0,34.7,0001.0,0021.86,0010.76,0008.95
2021-08-26 14:16:00,,0830.6,5.01,0.00,30.7,29.4,00.0,39.5,32.1,34.4,0000.5,0022.07,0010.77,0008.98
2021-08-26 14:17:00,,0830.6,4.99,0.00,30.7,29.4,00.0,39.6,32.1,34.1,0000.1,0021.67,0010.71,0009.00
2021-08-26 14:18:00,,0830.6,5.00,0.00,30.7,29.4,00.0,39.6,32.2,34.1,0000.2,0021.06,0010.71,0009.02
2021-08-26 14:19:00,,0830.6,4.99,0.00,30.7,29.5,00.0,39.6,32.2,33.5,0000.5,0021.37,0010.71,0009.05
2021-08-26 14:20:00,,0830.6,5.00,0.00,30.7,29.5,00.0,39.6,32.2,33.6,0000.3,0021.23,0010.75,0009.05
2021-08-26 14:21:00,,0830.6,5.01,0.00,30.7,29.6,00.0,39.6,32.2,33.9,0000.4,0021.38,0010.77,0009.06
2021-08-26 14:22:00,,0830.6,4.99,0.00,30.7,29.6,00.0,39.6,32.2,34.1,0000.3,0021.76,0010.82,0009.06
2021-08-26 14:23:00,,0830.6,5.00,0.00,30.7,29.2,00.0,39.7,32.1,34.8,0000.5,0022.91,0010.96,0009.08
2021-08-26 14:24:00,,0830.6,5.01,0.00,30.7,27.6,00.0,39.6,31.8,35.0,0000.3,0023.36,0011.06,0009.13
2021-08-26 14:25:00,,0830.6,4.99,0.00,30.7,26.7,00.0,39.6,31.7,35.5,0000.2,0023.87,0011.12,0009.16
2021-08-26 14:26:00,,0830.6,4.99,0.00,30.9,26.9,00.0,39.6,31.8,35.9,0000.5,0024.69,0011.21,0009.19
2021-08-26 14:27:00,,0830.6,5.00,0.00,31.2,27.3,00.0,39.5,32.0,35.6,0000.8,0024.86,0011.28,0009.18
2021-08-26 14:28:00,,0830.6,5.00,0.00,31.6,27.7,00.0,39.5,32.1,36.3,0000.9,0024.82,0011.37,0009.18
2021-08-26 14:29:00,,0830.6,5.01,0.00,32.0,28.0,00.0,39.6,32.3,35.5,0000.9,0024.39,0011.38,0009.17
2021-08-26 14:30:00,,0830.7,5.00,0.00,32.4,28.3,00.0,39.6,32.4,34.3,0001.0,0023.88,0011.33,0009.13
2021-08-26 14:31:00,,0830.6,5.00,0.00,32.6,28.5,00.0,39.8,32.4,32.8,0000.9,0024.45,0011.26,0009.05
2021-08-26 14:32:00,,0830.6,5.02,0.00,32.7,28.7,00.0,39.9,32.4,33.0,0000.9,0025.66,0011.32,0009.03
2021-08-26 14:33:00,,0830.6,5.01,0.00,32.7,28.8,00.0,40.0,32.4,33.3,0001.0,0026.59,0011.29,0009.03
2021-08-26 14:34:00,,0830.6,4.99,0.00,32.7,29.0,00.0,40.2,32.4,33.6,0001.0,0025.34,0011.24,0009.04
2021-08-26 14:35:00,,0830.5,5.01,0.00,32.7,29.1,00.0,40.3,32.4,33.4,0001.0,0026.64,0011.20,0009.06
2021-08-26 14:36:00,,0830.4,5.01,0.00,32.7,29.2,00.0,40.4,32.5,33.1,0001.0,0026.11,0011.17,0009.07
2021-08-26 14:37:00,,0830.4,5.00,0.00,32.6,29.3,00.0,40.5,32.5,33.2,0000.9,0026.27,0011.19,0009.09
2021-08-26 14:38:00,,0830.4,5.00,0.00,32.6,29.4,00.0,40.6,32.5,33.4,0000.8,0025.25,0011.16,0009.12
2021-08-26 14:39:00,,0830.4,5.00,0.00,32.6,29.4,00.0,40.6,32.6,33.8,0000.7,0025.98,0011.20,0009.20
2021-08-26 14:40:00,,0830.4,5.00,0.00,32.5,29.5,00.0,40.7,32.6,33.9,0000.4,0026.19,0011.24,0009.25
2021-08-26 14:41:00,,0830.5,5.01,0.00,32.5,29.5,00.0,40.7,32.6,34.0,0000.2,0026.39,0011.35,0009.34
2021-08-26 14:42:00,,0830.6,4.99,0.00,32.4,29.6,00.0,40.8,32.7,34.0,0000.1,0026.14,0011.53,0009.48
2021-08-26 14:43:00,,0830.6,5.00,0.00,32.4,28.8,00.0,40.8,32.5,34.3,0000.1,0025.64,0011.71,0009.64
2021-08-26 14:44:00,,0830.6,5.00,0.00,32.2,27.1,00.0,40.8,32.0,34.7,0000.1,0024.32,0011.83,0009.77
2021-08-26 14:45:00,,0830.6,5.00,0.00,32.0,26.7,00.0,40.8,31.9,35.1,-000.0,0023.71,0011.98,0009.89
2021-08-26 14:46:00,,0830.5,5.02,0.00,32.0,26.9,00.0,40.7,32.0,35.2,-000.1,0022.50,0012.04,0009.99
2021-08-26 14:47:00,,0830.5,4.99,0.00,32.1,27.4,00.0,40.6,32.2,35.3,0000.2,0021.87,0012.10,0010.04
2021-08-26 14:48:00,,0830.5,5.00,0.00,32.4,27.8,00.0,40.6,32.4,34.5,0000.2,0022.53,0012.12,0010.03
2021-08-26 14:49:00,,0830.5,5.00,0.00,32.6,28.1,00.0,40.6,32.5,34.1,0000.2,0022.83,0012.10,0010.01
2021-08-26 14:50:00,,0830.4,5.01,0.00,32.6,28.4,00.0,40.6,32.5,34.0,0000.5,0022.79,0012.11,0010.00
2021-08-26 14:51:00,,0830.4,4.99,0.00,32.6,28.6,00.0,40.6,32.5,33.9,0000.7,0023.60,0012.08,0009.99
2021-08-26 14:52:00,,0830.4,5.01,0.00,32.6,28.8,00.0,40.7,32.5,34.1,0001.0,0024.75,0012.07,0009.99
2021-08-26 14:53:00,,0830.4,5.01,0.00,32.6,29.0,00.0,40.7,32.5,34.1,0001.0,0025.36,0012.06,0009.96
2021-08-26 14:54:00,,0830.5,4.99,0.00,32.6,29.1,00.0,40.8,32.5,34.6,0000.9,0026.02,0012.06,0009.96
2021-08-26 14:55:00,,0830.5,5.00,0.00,32.5,29.2,00.0,40.8,32.6,34.2,0001.0,0025.84,0012.03,0009.91
2021-08-26 14:56:00,,0830.4,5.01,0.00,32.5,29.3,00.0,40.8,32.6,34.1,0001.2,0026.17,0012.02,0009.90
2021-08-26 14:57:00,,0830.4,4.99,0.00,32.4,29.4,00.0,40.9,32.6,34.3,0001.3,0026.69,0012.06,0009.86
2021-08-26 14:58:00,,0830.4,5.00,0.00,32.4,29.4,00.0,40.9,32.7,34.2,0001.2,0026.54,0012.07,0009.86
2021-08-26 14:59:00,,0830.4,5.00,0.00,32.4,28.7,00.0,40.9,32.5,34.2,0001.4,0025.77,0012.08,0009.90
